Regional Weather Roundup
Issued by NWS Midland/Odessa, TX

Skip options and go directly to product.
Home | Oldest Version | Previous Version | Current Version | All | Graphics & Text | Save Text | Print | Product List | Glossary On

Skip product version selection by date and time.   
250
ASUS44 KMAF 292210
RWRMAF
MIDLAND AREA WEATHER ROUNDUP
NATIONAL WEATHER SERVICE MIDLAND TX
500 PM CDT WED JUL 29 2015

...IN SOUTHWEST TEXAS AND SOUTHEAST NEW MEXICO...

CITY           SKY/WX    TMP DP  RH WIND       PRES   REMARKS
ALPINE         PTSUNNY   83  62  48 CALM      30.21F THUNDER
ANDREWS        FAIR      97  51  21 SE5       30.08F
ARTESIA        MOSUNNY   91  55  29 E17       30.11F
BIG SPRING     CLOUDY    95  59  29 NE7       30.06F
CARLSBAD       MOSUNNY   92  60  34 N10       30.07F
DRYDEN           N/A    100  59  25 E12G24    29.99F HX 100
FORT STOCKTON  MOSUNNY   98  53  22 SE13G25   30.04F
GUAD PASS      MOSUNNY   81  58  45 E22       30.24F
HOBBS          MOSUNNY   95  54  24 E12G18    30.12F
MARFA          CLOUDY    82  61  47 N16G22    30.21F
MIDLAND AIRPK  SUNNY    100  51  19 E7        30.06F
MIDLAND INTL   MOSUNNY   98  56  24 SE8       30.05F
ODESSA         MOSUNNY   98  53  22 SE8       30.06F
PECOS          SUNNY    100  55  21 E9        30.00F
PRESIDIO       FAIR     100  55  22 NE7       29.97F
SEMINOLE       PTSUNNY   82  65  57 NW5       30.12F
SNYDER         SUNNY     96  62  33 SE5       30.06F
WINK           MOSUNNY   98  54  22 E10G22    30.02F
$$
...OTHER STATIONS IN TEXAS...

CITY           SKY/WX    TMP DP  RH WIND       PRES   REMARKS
ABILENE        MOSUNNY   99  61  28 MISG      30.02F
AMARILLO       SUNNY     86  66  51 NE8       30.19F
AUSTIN         MOSUNNY   97  66  36 S7        29.97F HX 100
BROWNSVILLE    SUNNY     93  70  46 SE17G25   29.98F
CORPUS CHRISTI MOSUNNY   94  74  52 SE20      29.98F HX 104
DALLAS FTW     MOSUNNY  100  62  28 SE12G17   29.98F HX 101
DEL RIO        SUNNY    100  59  25 SE15G21   29.94F HX 100
EL PASO        MOSUNNY   91  56  30 VRB3G23   30.08F
HOUSTON INT    MOSUNNY   99  66  33 SE3       29.97F HX 103
LUBBOCK        MOSUNNY   93  62  35 E7        30.12F
SAN ANGELO     SUNNY    101  61  26 NE7       30.00F HX 102
SAN ANTONIO    MOSUNNY   97  66  36 S13       29.99F HX 100
WACO           SUNNY     99  62  29 S9        29.98F HX 100
WICHITA FALLS  NOT AVBL
$$
...OTHER LOCATIONS IN NEW MEXICO...

CITY           SKY/WX    TMP DP  RH WIND       PRES   REMARKS
ALAMAGORDO     TSTM      72  63  73 E8        30.16S
ALBUQUERQUE    LGT RAIN  71  63  75 E10       30.28F
CANNON AFB     NOT AVBL
CLOVIS         SUNNY     88  61  40 E8        30.22F
HOLLOMAN AFB   MOSUNNY   84  59  42 SE21      30.12F THUNDER
ROSWELL        MOSUNNY   92  57  30 VRB6      30.11F
RUIDOSO          N/A    N/A N/A N/A MISG        N/A
SANTA FE       PTSUNNY   77  52  41 E5        30.33F
TRUTH OR CONSE MOSUNNY   87  55  33 SW10      30.17F
TUCUMCARI      MOSUNNY   86  62  44 NE12      30.19F
$$

USA.gov is the U.S. government's official web portal to all federal, state and local government web resources and services.